Marrakech, Morocco

9:48 AM WEST on August 20, 2017 (GMT +0100)
Marrakech

Weather History for GMMX - January, 2014

Change the Weather History Date:

Friday, January 10, 2014

  Actual Average Record
Temperature  
Mean Temperature 62 °F -  
Max Temperature 70 °F 64 °F 75 °F (1998)
Min Temperature 55 °F 43 °F 35 °F (2013)
Degree Days  
Heating Degree Days 2    
Growing Degree Days 12 (Base 50)    
Moisture  
Dew Point 42 °F    
Average Humidity 48    
Maximum Humidity 88    
Minimum Humidity 20    
Precipitation  
Precipitation 0.08 in 0.04 in - ()
Sea Level Pressure  
Sea Level Pressure 29.89 in    
Wind  
Wind Speed 8 mph ()    
Max Wind Speed 18 mph    
Max Gust Speed 28 mph    
Visibility 5.0 miles    
Events Rain    
Averages and records for this station are not official NWS values.
T = Trace of Precipitation, MM = Missing Value Source: Averaged Metar Reports

Daily Weather History Graph

Daily Weather History Graph

Search for Another Location

Airport or City:

Trip Planner

Search our weather history database for the weather conditions in past years. The results will help you decide how hot, cold, wet, or windy it might be!

Date:

Astronomy

Jan. 10, 2014 Rise Set
Actual Time 7:32 AM WET 5:46 PM WET
Civil Twilight 7:06 AM WET 6:13 PM WET
Nautical Twilight 6:36 AM WET 6:43 PM WET
Astronomical Twilight 6:06 AM WET 7:12 PM WET
Moon 1:36 PM WET (1/10) 2:33 AM WET (1/10)
Length of Visible Light 11h 07m
Length of Day
10h 14m
Waxing Gibbous, 73% of the Moon is Illuminated
Jan 10
Waxing Gibbous
Jan 16
Full
Jan 24
Last Quarter
Jan 30
New
Feb 6
First Quarter

Hourly Weather History & Observations

Time (WET) Temp. Dew Point Humidity Pressure Visibility Wind Dir Wind Speed Gust Speed Precip Events Conditions
12:00 AM 60.8 °F 33.8 °F 36% 29.86 in 5.0 mi ENE 4.6 mph - N/A   Scattered Clouds
6:00 AM 55 °F 40 °F 46% 29.85 in 6 mi NNE 4.6 mph - -   Mostly Cloudy
6:00 AM 55.4 °F 41.0 °F 58% 29.83 in 5.0 mi NE 4.6 mph - N/A   Scattered Clouds
7:00 AM 55.4 °F 44.6 °F 67% 29.86 in - NNE 4.6 mph - N/A   Scattered Clouds
8:00 AM 59.0 °F 35.6 °F 42% 29.89 in 5.0 mi WSW 6.9 mph - N/A   Scattered Clouds
9:00 AM 60 °F 39 °F 34% 29.91 in 6 mi West 6.9 mph - -   Mostly Cloudy
9:00 AM 60.8 °F 39.2 °F 45% 29.92 in - West 6.9 mph - N/A   Scattered Clouds
10:00 AM 62.6 °F 39.2 °F 42% 29.92 in 1.2 mi SE 13.8 mph 27.6 mph N/A   Sand
11:00 AM 64.4 °F 37.4 °F 37% 29.92 in 3.1 mi East 18.4 mph - N/A   Scattered Clouds
12:00 PM 65 °F 39 °F 27% 29.84 in 5 mi ENE 16.1 mph - -   Mostly Cloudy
12:00 PM 66.2 °F 39.2 °F 37% 29.86 in 5.0 mi ENE 16.1 mph - N/A   Scattered Clouds
1:00 PM 69.8 °F 35.6 °F 28% 29.83 in 6.2 mi East 6.9 mph - N/A   Scattered Clouds
2:00 PM 69.8 °F 37.4 °F 31% 29.83 in 6.2 mi NE 8.1 mph - N/A   Unknown
3:00 PM 70 °F 38 °F 20% 29.78 in 6 mi West 11.5 mph - -   Mostly Cloudy
3:00 PM 69.8 °F 37.4 °F 31% 29.83 in 6.2 mi West 11.5 mph - N/A   Scattered Clouds
4:00 PM 68.0 °F 41.0 °F 37% 29.86 in 5.0 mi WNW 13.8 mph - N/A   Scattered Clouds
5:00 PM 66.2 °F 41.0 °F 40% 29.86 in 5.0 mi West 11.5 mph - N/A   Scattered Clouds
6:00 PM 64 °F 40 °F 30% 29.86 in 5 mi WNW 13.8 mph - -   Mostly Cloudy
6:00 PM 64.4 °F 41.0 °F 42% 29.89 in 5.0 mi WNW 13.8 mph - N/A   Scattered Clouds
7:00 PM 60.8 °F 46.4 °F 59% 29.95 in 5.0 mi West 11.5 mph - N/A Rain Light Rain
8:00 PM 55.4 °F 50.0 °F 82% 29.98 in 5.0 mi SW 13.8 mph - N/A Rain Light Rain
9:00 PM 55 °F 51 °F 84% 30.01 in 5 mi South 11.5 mph - - Rain Light Rain
9:00 PM 55.4 °F 51.8 °F 88% 30.01 in 5.0 mi South 11.5 mph - N/A Rain Light Rain
10:00 PM 55.4 °F 50.0 °F 82% 30.01 in 5.0 mi SSW 10.4 mph - N/A Rain Light Rain
11:00 PM 55.4 °F 50.0 °F 82% 30.01 in 5.0 mi SSW 11.5 mph - N/A Rain Light Rain